星链-1107 (STARLINK-1107 )

导读

STARLINK‑1107是美国SpaceX公司星链(Starlink)互联网卫星星座的一员,于北京时间2020年1月7日8时发射入轨,运行在近地轨道。它属于星链早期组网卫星,依托Ku/Ka频段相控阵天线和低轨布局,为全球提供低时延高速互联网接入,助力偏远地区网络覆盖,是SpaceX打造全球卫星互联网组网的重要组成部分。

Basic Information
目录编号:
44972
目录名称:
STARLINK-1107
国际标识:
2020-001BL
轨道中心:
EARTH
卫星名称:
星链-1107
卫星全名:
星链-1107 (STARLINK-1107 )
卫星状态:
已陨落 最后检测时间 2025-12-13
发射日期:
2020-01-07 UTC
国别 :
美国 (US)
星等 :
--
Orbit Information
数据来源 国际轨道数据
星历时间: 2025-12-13T09:39:14+0800
轨道信息已过期181天
半长轴: 6543.977km
偏心率: 0.0004322
轨道倾角: 52.985°
近地点辐角 234.019°
升交点赤经 225.840°
平近点角 126.046°
近地点: 163.013km
远地点: 168.671km
周期: 87.806分钟
每日圈数: 16.399861
Detailed Information
固有亮度:
5
最大亮度:
2.5
卫星平台:
Starlink V1.0
覆盖范围:
全球
运营商:
太空探索技术公司
运营商所在国:
美国
制造商(研发单位):
太空探索技术公司
制造商所在国:
美国
使用方式:
暂无
Satellite Introduction
星链(Starlink)计划是由太空探索技术公司(SpaceX)提出的一个巨型低轨卫星互联网星座项目,计划在2019年至2024年间在太空搭建由约1.2万颗卫星组成的“星链”网络,其中1584颗将部署在地球上空550千米处的近地轨道,并从2020年开始工作。该卫星仍在工作。